Regional Weather Roundup
Issued by NWS

Home | Current Version | Previous Version | Graphics & Text | Print | Product List | Glossary On
Versions: 1 2 3 4 5 6 7 8 9 10 11 12 13 14 15 16 17 18 19 20 21 22 23 24 25 26 27 28 29 30 31 32 33 34 35 36 37 38 39 40 41 42 43 44 45 46 47 48 49 50
000
ASUS43 KIND 010459
RWRIN

WEATHER ROUNDUP FOR INDIANA
NATIONAL WEATHER SERVICE INDIANAPOLIS IN
100 AM EDT WED JUL 01 2015

NOTE: "FAIR" INDICATES FEW OR NO CLOUDS BELOW 12,000 FEET WITH NO
SIGNIFICANT WEATHER AND/OR OBSTRUCTIONS TO VISIBILITY.

* - STATION DOES NOT REPORT WEATHER SUCH AS PRECIPITATION OR FOG.

+ - STATION NOT QUALITY CONTROLLED BY THE NATIONAL WEATHER SERVICE.
    USE DATA WITH CAUTION...ESPECIALLY DEWPOINT AND RELATIVE
    HUMIDITY OBSERVATIONS.

INZ001>003-010>013-019-020-010600-
NORTHWEST INDIANA

CITY           SKY/WX    TMP DP  RH WIND       PRES   REMARKS
MONTICELLO +   PTCLDY    63  61  92 N5        29.90R
RENSSELAER +   PTCLDY    61  61 100 N3        29.91S

$$

LMZ046-743>745-010600-
SOUTHERN LAKE MICHIGAN

STATION/POSITION TIME  TEMP    WIND        PRES    WAVE
                       AIR SEA DIR/SP/G            HT
                 (UTC) (F)     (DEG/KT/KT) (MB)    (FT)
BURNS HARBOR     0400   61     340/  7/  8 1013.9R
MICHIGAN CITY    0400   61     360/  8/  9   N/A
5NW MICH CITY    0400   61 65  360/  8/ 12   N/A     3

$$

INZ004-005-014>016-021>024-010600-
NORTH CENTRAL INDIANA

CITY           SKY/WX    TMP DP  RH WIND       PRES   REMARKS
SOUTH BEND     NOT AVBL

$$

INZ006>009-017-018-025>027-010600-
NORTHEAST INDIANA

CITY           SKY/WX    TMP DP  RH WIND       PRES   REMARKS
ANGOLA *+      CLEAR     61  57  88 NW6       29.85S
FORT WAYNE     NOT AVBL

$$

INZ028-029-035-036-043>045-051>053-010600-
WEST CENTRAL INDIANA

CITY           SKY/WX    TMP DP  RH WIND       PRES   REMARKS
CRAWFORDSVL +  CLEAR     61  60  97 CALM      29.90R
GREENCASTLE +  CLEAR     64  61  88 N3        29.90S
LAFAYETTE      NOT AVBL
TERRE HAUTE    NOT AVBL

$$

INZ030>032-037>040-046>048-054>057-064-065-010600-
CENTRAL INDIANA

CITY           SKY/WX    TMP DP  RH WIND       PRES   REMARKS
GREENWOOD *+   PTCLDY    66  61  82 CALM      29.90R
INDIANAPOLIS   NOT AVBL
MT COMFORT *+  PTCLDY    63 N/A N/A CALM      29.90S
SHELBYVILLE    NOT AVBL

$$

INZ033-034-041-042-049-050-058-059-010600-
EAST CENTRAL INDIANA

CITY           SKY/WX    TMP DP  RH WIND       PRES   REMARKS
MUNCIE         NOT AVBL

$$

INZ060-061-067>069-081>083-085>088-010600-
SOUTHWEST INDIANA

CITY           SKY/WX    TMP DP  RH WIND       PRES   REMARKS
EVANSVILLE     NOT AVBL

$$

INZ062-063-066-070>080-084-089>092-010600-
SOUTH CENTRAL AND SOUTHEAST INDIANA

CITY           SKY/WX    TMP DP  RH WIND       PRES   REMARKS
BLOOMINGTON    NOT AVBL
MADISON *+     CLOUDY    64  63  94 SW5       29.93R
SEYMOUR +      MOCLDY    66  66 100 CALM      29.90R

$$




USA.gov is the U.S. government's official web portal to all federal, state and local government web resources and services.